Flag for Canada Weather past 2 weeks in Pond Inlet, Nunavut Territory, Canada

Now
9 °F

Overcast.


Feels Like: -9 °F
Forecast: 1 / 20 °F
Wind: 16 mph from South

Location: Pond Inlet

Current Time: Oct 22, 2014 at 12:12:22 PM

Latest Report: Oct 22, 2014 at 11:00 AM


Visibility: 25 mi

Pressure: 29.64 "Hg

Humidity: 72%

Dew point: 1 °F

Location of Pond InletLocation

Historic Weather in Pond Inlet — Graph

°F

Pond Inlet temperature yesterday

Maximum temperature yesterday: 19 °F (at 11:00 AM)
Minimum temperature yesterday: 16 °F (at 12:00 AM)
Average temperature yesterday: 18 °F

Past Weeks' High & Low Weather Summary

 TemperatureHumidityPressure
High43 °F (Oct 11, 2:00 PM)93% (Oct 7, 5:00 PM)30.49 "Hg (Oct 7, 5:00 PM)
Low9 °F (Oct 22, 11:00 AM)57% (Oct 11, 2:00 PM)29.54 "Hg (Oct 11, 10:00 AM)
Average23 °F81%29.96 "Hg
* Reported Oct 7 11:00 AM — Oct 22 11:00 AM, Pond Inlet, Weather by CustomWeather, © 2014

Note: Actual official high and low records may vary slightly from our data, if they occured in-between our weather recording intervals... More about our weather records

Advertising

Pond Inlet weather history for previous 24 hours

 ConditionsComfort  
Time TempWeatherWind HumidityBarometerVisibility
11:00 AM
Oct 22
9 °FOvercast.16 mph72%29.64 "Hg25 mi
10:00 AM12 °FOvercast.16 mph67%29.63 "Hg9 mi
9:00 AM12 °FOvercast.12 mph73%29.62 "Hg9 mi
8:00 AM14 °FMostly cloudy.14 mph73%29.61 "Hg9 mi
7:00 AM14 °FOvercast.14 mph79%29.59 "Hg9 mi
6:00 AM16 °FLight snow. Overcast.13 mph79%29.59 "Hg9 mi
5:00 AM16 °FLight snow. Mostly cloudy.10 mph93%29.59 "Hg9 mi
4:00 AM18 °FLight snow. Overcast.10 mph79%29.58 "Hg9 mi
1:00 AM19 °FMostly cloudy.16 mph73%29.59 "Hg9 mi
12:00 AM19 °FOvercast.17 mph86%29.59 "Hg9 mi
11:00 PM
Oct 21
19 °FLight snow. Mostly cloudy.17 mph86%29.59 "Hg9 mi
10:01 PM19 °FLight snow. Mostly cloudy.15 mph86%29.60 "Hg9 mi
9:00 PM19 °FLight snow. Mostly cloudy.13 mph93%29.62 "Hg4 mi
8:00 PM18 °FLight snow. Overcast.10 mph93%29.63 "Hg4 mi
6:00 PM19 °FLight snow. Overcast.7 mph86%29.65 "Hg5 mi
5:52 PM18 °FLight snow. Overcast.7 mph93%29.65 "Hg5 mi
5:00 PM19 °FLight snow. Overcast.7 mph93%29.66 "Hg9 mi
4:00 PM19 °FLight snow. Overcast.5 mph86%29.68 "Hg9 mi
3:46 PM19 °FLight snow. Overcast.6 mph86%29.68 "Hg9 mi
3:00 PM18 °FMostly cloudy.7 mph93%29.69 "Hg9 mi
2:00 PM19 °FMore clouds than sun.7 mph86%29.70 "Hg9 mi
1:00 PM18 °FMore clouds than sun.7 mph93%29.71 "Hg9 mi
12:00 PM18 °FOvercast.7 mph86%29.72 "Hg9 mi
Weather by CustomWeather, © 2014

See weather overviewHow to use our weather pages